Air Resources Laboratory banner image
Air Resources Laboratory web site National Oceanic and Atmospheric Administration (NOAA)

ar roundup


Office: LZK

ASUS44 KLZK 102201
RWRLZK

WEATHER ROUNDUP FOR ARKANSAS
NATIONAL WEATHER SERVICE LITTLE ROCK AR
500 PM CDT WED AUG 10 2022

NOTE: "FAIR" INDICATES FEW OR NO CLOUDS BELOW 12,000 FEET WITH NO
SIGNIFICANT WEATHER AND/OR OBSTRUCTIONS TO VISIBILITY.

ARZ001-010-029-103-102300-
NORTHWEST ARKANSAS

CITY           SKY/WX    TMP DP  RH WIND       PRES   REMARKS
FAYETTEVILLE   MOSUNNY   91  66  43 VRB3      30.08S HX  93
FORT SMITH     SUNNY     96  62  32 E10       30.00F HX  97
HARRISON       MOSUNNY   88  63  43 VRB5      30.09F HX  89
BENTONVILLE    SUNNY     89  64  43 N8        30.10F HX  90
ROGERS         MOSUNNY   89  65  44 NE10      30.10S HX  91
SILOAM SPGS    SUNNY     89  65  44 N7        30.09S HX  91
HIGHFILL       MOSUNNY   91  64  40 VRB7      30.09S HX  92
SPRINGDALE     MOSUNNY   90  70  51 NE8       30.09S HX  95
$$

ARZ004-005-016-102300-
NORTH CENTRAL ARKANSAS

CITY           SKY/WX    TMP DP  RH WIND       PRES   REMARKS
BATESVILLE     CLOUDY    81  77  88 E6        30.07S HX  88
FLIPPIN        MOSUNNY   90  71  53 VRB6      30.07S HX  96
MTN HOME       MOSUNNY   88  68  51 E5        30.07  HX  91
$$

ARZ140-141-102300-
WEST CENTRAL ARKANSAS

CITY           SKY/WX    TMP DP  RH WIND       PRES   REMARKS
MENA           NOT AVBL
MOUNT IDA      LGT RAIN  78  73  84 VRB6      30.03R
$$

ARZ009-017-025-026-028-102300-
NORTHEAST ARKANSAS

CITY           SKY/WX    TMP DP  RH WIND       PRES   REMARKS
JONESBORO      MOSUNNY   86  74  67 E10       30.06S HX  94
NEWPORT        MOSUNNY   84  75  74 NE12      30.05F HX  92
WALNUT RIDGE   MOSUNNY   85  76  74 E8        30.06S HX  94
BLYTHEVILLE    LGT RAIN  80  76  87 N7        30.06R HX  86
$$

ARZ032-043-044-102300-
LITTLE ROCK METRO AREA

CITY           SKY/WX    TMP DP  RH WIND       PRES   REMARKS
LITTLE ROCK    PTSUNNY   87  74  64 E6        30.03S HX  95
JACKSONVILLE   CLOUDY    83  48  29 NE3       30.01F
CONWAY         MOCLDY    81  75  83 E8        30.03S HX  86
$$

ARZ033-042-122-123-102300-
REMAINDER OF CENTRAL ARKANSAS

CITY           SKY/WX    TMP DP  RH WIND       PRES   REMARKS
SEARCY         SUNNY     87  75  67 E7        30.05S HX  96
HOT SPRINGS    CLOUDY    82  70  66 SE5       30.04F HX  86
RUSSELLVILLE   MOSUNNY   91  71  51 VRB6      30.02S HX  97
CLINTON        FAIR      84  73  70 SE5       30.05S HX  91
$$

ARZ036-102300-
EAST ARKANSAS

CITY           SKY/WX    TMP DP  RH WIND       PRES   REMARKS
WEST MEMPHIS   SUNNY     88  72  58 CALM      30.03S HX  94
$$

ARZ050-053-066-070-072-073-102300-
SOUTHWEST ARKANSAS

CITY           SKY/WX    TMP DP  RH WIND       PRES   REMARKS
CAMDEN         CLOUDY    88  77  70 NE7       30.01R HX 100
TEXARKANA      MOSUNNY   94  74  52 S8        30.00S HX 104
MAGNOLIA       CLEAR     91  73  55 VRB5      29.99S HX 100
EL DORADO      MOSUNNY   91  74  57 VRB3      30.01S HX 100
DE QUEEN       SUNNY     99  64  31 VRB6      29.97S HX 101
$$

ARZ056-057-069-102300-
SOUTHEAST ARKANSAS

CITY           SKY/WX    TMP DP  RH WIND       PRES   REMARKS
PINE BLUFF     PTSUNNY   78  75  90 SW8       30.03F
STUTTGART      PTSUNNY   87  74  64 NE6       30.04S HX  95
MONTICELLO     MOSUNNY   90  71  53 VRB5      30.03S HX  96

$$




ASUS44 KLZK 102210
RWRLZK

WEATHER ROUNDUP FOR ARKANSAS
NATIONAL WEATHER SERVICE LITTLE ROCK AR
500 PM CDT WED AUG 10 2022

NOTE: "FAIR" INDICATES FEW OR NO CLOUDS BELOW 12,000 FEET WITH NO
SIGNIFICANT WEATHER AND/OR OBSTRUCTIONS TO VISIBILITY.

ARZ001-010-029-103-102300-
NORTHWEST ARKANSAS

CITY           SKY/WX    TMP DP  RH WIND       PRES   REMARKS
FAYETTEVILLE   MOSUNNY   91  66  43 VRB3      30.08S HX  93
FORT SMITH     SUNNY     96  62  32 E10       30.00F HX  97
HARRISON       MOSUNNY   88  63  43 VRB5      30.09F HX  89
BENTONVILLE    SUNNY     89  64  43 N8        30.10F HX  90
ROGERS         MOSUNNY   89  65  44 NE10      30.10S HX  91
SILOAM SPGS    SUNNY     89  65  44 N7        30.09S HX  91
HIGHFILL       MOSUNNY   91  64  40 VRB7      30.09S HX  92
SPRINGDALE     MOSUNNY   90  70  51 NE8       30.09S HX  95
$$

ARZ004-005-016-102300-
NORTH CENTRAL ARKANSAS

CITY           SKY/WX    TMP DP  RH WIND       PRES   REMARKS
BATESVILLE     CLOUDY    81  77  88 E6        30.07S HX  88
FLIPPIN        MOSUNNY   90  71  53 VRB6      30.07S HX  96
MTN HOME       MOSUNNY   88  68  51 E5        30.07  HX  91
$$

ARZ140-141-102300-
WEST CENTRAL ARKANSAS

CITY           SKY/WX    TMP DP  RH WIND       PRES   REMARKS
MENA           NOT AVBL
MOUNT IDA      LGT RAIN  78  73  84 VRB6      30.03R
$$

ARZ009-017-025-026-028-102300-
NORTHEAST ARKANSAS

CITY           SKY/WX    TMP DP  RH WIND       PRES   REMARKS
JONESBORO      MOSUNNY   86  74  67 E10       30.06S HX  94
NEWPORT        MOSUNNY   84  75  74 NE12      30.05F HX  92
WALNUT RIDGE   MOSUNNY   85  76  74 E8        30.06S HX  94
BLYTHEVILLE    TSTM      78  75  90 NW8       30.06R FOG
$$

ARZ032-043-044-102300-
LITTLE ROCK METRO AREA

CITY           SKY/WX    TMP DP  RH WIND       PRES   REMARKS
LITTLE ROCK    PTSUNNY   87  74  64 E6        30.03S HX  95
N LTL ROCK NWS   N/A     83  73  70 E6        30.05S HX  89
JACKSONVILLE   CLOUDY    83  48  29 NE3       30.01F
CONWAY         MOCLDY    81  75  83 E8        30.03S HX  86
$$

ARZ033-042-122-123-102300-
REMAINDER OF CENTRAL ARKANSAS

CITY           SKY/WX    TMP DP  RH WIND       PRES   REMARKS
SEARCY         MOSUNNY   87  75  67 E7        30.05S HX  96
HOT SPRINGS    CLOUDY    82  70  66 SE5       30.04F HX  86
RUSSELLVILLE   MOSUNNY   91  71  51 VRB6      30.02S HX  97
CLINTON        FAIR      84  73  70 SE5       30.05S HX  91
$$

ARZ036-102300-
EAST ARKANSAS

CITY           SKY/WX    TMP DP  RH WIND       PRES   REMARKS
WEST MEMPHIS   SUNNY     88  72  58 CALM      30.03S HX  94
$$

ARZ050-053-066-070-072-073-102300-
SOUTHWEST ARKANSAS

CITY           SKY/WX    TMP DP  RH WIND       PRES   REMARKS
CAMDEN         CLOUDY    88  77  70 NE7       30.01R HX 100
TEXARKANA      MOSUNNY   94  74  52 S8        30.00S HX 104
MAGNOLIA       CLEAR     91  73  55 VRB5      29.99S HX 100
EL DORADO      MOSUNNY   91  74  57 VRB3      30.01S HX 100
DE QUEEN       SUNNY     99  64  31 VRB6      29.97S HX 101
$$

ARZ056-057-069-102300-
SOUTHEAST ARKANSAS

CITY           SKY/WX    TMP DP  RH WIND       PRES   REMARKS
PINE BLUFF     PTSUNNY   78  75  90 SW8       30.03F
STUTTGART      PTSUNNY   87  74  64 NE6       30.04S HX  95
MONTICELLO     PTSUNNY   90  71  53 VRB5      30.03S HX  96

$$